Temp
75 78 79 79 65 65 65 73 82 79 79 85 87 82 77 79 75 59 79 80 80 76 77 79 79 79 79 79 79 79 79 79 79 79 80 79 79 80 79 79 80 80 80 81 81 80 81 80 80
82 87 80 74 61 56 68 77 75 79 86 87 86 84 79 74 84 78 77 81 79 77 75 76 79 79 79 79 79 79 79 79 79 79 79 79 79 79 79 80 80 80 80 80 81 80 80 80 80
82 87 71 70 65 58 67 79 78 85 90 88 83 86 82 78 85 81 82 81 80 77 76 77 79 79 79 79 78 78 78 79 79 79 79 79 79 79 79 79 80 80 81 80 80 80 80 80 80
80 77 75 66 66 74 75 80 84 83 87 86 84 76 84 89 85 85 86 84 79 74 73 78 79 79 79 79 79 78 79 79 79 79 79 79 79 79 78 79 79 80 80 80 80 80 80 80 80
79 77 63 55 65 73 82 88 87 82 83 82 83 75 77 87 89 88 86 84 78 74 73 76 78 79 79 79 79 79 78 78 79 79 79 79 79 78 78 79 79 80 80 80 80 79 79 79 79
71 73 60 57 64 78 83 87 88 83 82 82 79 77 75 87 87 87 88 83 79 76 74 75 79 78 78 79 79 78 78 78 79 78 79 79 78 78 78 79 79 79 79 79 79 79 79 78 78
68 66 61 65 65 69 80 88 84 84 82 82 84 73 76 82 86 89 88 82 80 79 74 72 73 76 79 78 78 78 78 78 78 78 78 78 78 78 78 78 78 78 78 78 78 78 78 78 78
77 71 63 68 62 67 86 87 89 85 83 90 87 73 71 80 87 88 87 84 81 78 76 71 70 72 71 73 78 78 78 78 77 78 78 78 78 78 78 77 78 79 78 78 78 78 78 78 78
82 65 67 75 73 74 84 82 88 92 86 88 89 83 85 88 89 85 83 83 80 80 78 76 73 71 72 72 76 77 79 78 78 77 78 76 76 74 76 77 78 79 79 78 78 78 78 78 78
73 64 73 85 86 80 83 84 87 86 83 81 83 86 89 89 87 82 81 81 80 79 80 79 77 76 76 81 72 71 74 72 71 73 73 75 73 73 79 79 79 79 79 79 78 78 78 79 73
77 72 82 85 88 87 85 84 90 84 77 81 78 82 85 85 84 82 83 82 83 83 83 82 80 80 80 79 73 74 73 72 72 73 73 77 79 73 76 72 77 73 77 73 78 75 74 75 74
72 83 86 86 88 87 83 89 87 86 84 87 85 85 84 83 82 81 81 81 82 83 85 83 83 79 80 77 75 77 76 74 74 75 75 78 73 74 75 71 75 72 74 72 73 72 72 73 75
75 81 86 87 88 86 88 86 84 82 89 89 88 86 83 82 82 83 83 82 82 81 82 82 79 78 79 75 76 77 78 77 77 76 77 76 77 76 73 73 73 71 73 75 75 71 73 74 76
81 83 85 85 83 84 81 87 84 85 89 87 85 83 83 82 83 81 82 81 80 81 79 79 79 77 79 75 75 75 76 78 76 76 76 77 74 73 73 74 73 73 77 74 74 73 74 75 74
82 76 82 83 82 82 86 81 80 85 87 83 83 84 83 82 84 82 82 82 80 82 80 79 77 78 76 76 76 75 76 77 76 76 77 77 76 74 74 71 72 74 76 74 73 74 73 73 74
74 73 64 78 83 86 83 67 82 78 82 81 84 85 84 82 83 83 83 82 80 80 81 80 86 77 75 74 74 75 75 75 76 76 76 79 78 76 75 73 72 73 75 73 74 73 70 70 72
67 61 66 73 84 83 78 68 81 82 86 82 83 83 83 81 81 82 85 82 81 80 79 78 80 77 74 73 73 73 74 74 75 76 76 77 79 79 75 73 75 75 73 72 73 71 71 69 70
61 62 67 68 81 82 76 75 75 76 78 80 79 83 83 82 82 83 83 83 81 79 80 80 76 77 75 73 71 71 72 73 75 75 75 77 78 79 78 74 74 77 74 71 73 71 70 70 70
72 69 69 78 85 79 76 74 73 73 74 70 74 82 82 82 85 82 85 85 82 78 78 77 74 74 76 71 73 69 70 71 73 74 77 78 79 78 75 76 73 74 72 71 75 72 71 69 70
73 69 67 76 83 78 76 75 76 76 73 71 75 84 83 82 83 84 85 83 83 78 79 78 78 73 75 76 76 72 71 72 73 75 76 76 78 78 76 76 73 73 71 71 71 70 67 67 69
72 66 67 69 78 77 74 70 76 78 79 80 84 87 85 84 82 85 85 84 82 82 79 79 79 74 76 74 74 71 72 71 73 73 72 76 78 79 77 73 70 71 71 70 69 69 68 65 65
62 76 77 76 68 59 71 55 69 76 78 83 84 84 86 86 87 87 87 85 84 83 81 81 80 77 77 76 76 76 77 76 77 79 79 79 78 76 76 75 73 71 70 70 70 71 69 67 64
71 79 73 73 65 59 66 58 65 74 72 77 86 87 83 87 88 86 88 88 88 86 83 80 80 80 80 78 79 76 75 72 73 74 73 76 68 70 71 71 73 71 70 70 70 69 69 67 66
82 73 69 65 60 51 62 59 60 66 73 75 79 83 87 86 87 90 89 90 89 89 85 83 79 79 81 80 77 76 77 73 73 71 70 68 69 69 68 70 72 71 69 68 68 69 68 67 66
71 59 49 47 49 50 65 60 67 75 80 79 80 82 85 82 83 83 86 89 88 87 85 83 81 78 80 79 79 76 74 75 71 69 67 68 69 69 70 72 71 71 70 69 67 68 67 67 66
65 63 51 45 46 52 66 57 70 81 85 81 81 83 80 83 83 83 81 84 89 88 88 84 81 80 80 78 76 76 77 71 69 69 68 68 68 70 71 70 69 69 69 68 68 66 66 66 65
66 59 70 57 56 51 58 67 76 79 80 81 80 81 79 75 80 79 75 75 75 88 88 86 81 80 78 77 77 77 73 70 69 68 68 68 70 71 71 69 65 67 67 67 66 65 64 65 64
68 72 57 55 47 44 56 59 60 70 76 77 76 78 77 79 78 75 74 72 71 72 86 82 82 77 76 75 73 70 70 70 69 67 65 65 66 69 69 67 66 67 67 66 65 65 66 64 63
65 61 60 58 56 49 48 56 69 69 71 74 69 69 73 77 76 72 72 71 70 70 70 72 71 68 67 67 67 67 66 65 65 64 64 64 67 69 67 67 67 66 66 67 66 65 65 64 62
72 65 61 52 52 55 53 53 74 73 74 71 66 68 66 62 64 60 59 62 69 69 70 69 67 66 66 65 66 65 65 65 64 64 65 69 67 68 67 67 66 68 69 68 66 64 64 62 62
MSLP
1009.22 1009.32 1009.52 1009.59 1009.66 1008.64 1007.34 1005.98 1004.46 1004.26 1004.28 1004.57 1004.93 1005.79 1007.10 1007.82 1008.46 1011.30 1011.96 1011.93 1012.91 1013.71 1014.38 1014.76 1015.04 1015.30 1015.57 1015.87 1016.04 1016.04 1016.16 1016.42 1016.51 1016.51 1016.56 1016.60 1016.63 1016.72 1016.73 1016.69 1016.60 1016.56 1016.52 1016.56 1016.63 1016.64 1016.65 1016.74 1016.83
1008.71 1008.83 1009.02 1008.71 1008.82 1008.31 1006.62 1005.01 1004.60 1004.42 1004.41 1004.80 1005.49 1006.25 1007.18 1008.40 1008.33 1010.84 1011.91 1012.78 1012.95 1013.62 1014.41 1014.79 1015.08 1015.33 1015.70 1015.95 1016.08 1016.20 1016.37 1016.42 1016.52 1016.67 1016.77 1016.88 1016.91 1016.93 1016.97 1016.95 1016.90 1016.82 1016.79 1016.73 1016.79 1016.86 1016.87 1016.89 1016.95
1008.87 1008.72 1008.94 1008.89 1008.11 1007.22 1005.71 1004.48 1004.14 1004.21 1004.24 1004.79 1005.96 1006.85 1007.74 1008.50 1009.11 1010.50 1011.79 1012.66 1012.85 1013.83 1014.44 1014.73 1015.06 1015.51 1015.75 1015.93 1016.20 1016.40 1016.53 1016.56 1016.62 1016.73 1016.93 1017.06 1017.19 1017.13 1017.09 1017.05 1017.08 1017.00 1016.95 1016.94 1016.99 1017.05 1017.05 1017.08 1017.13
1008.77 1008.90 1008.80 1008.80 1008.22 1006.72 1005.82 1004.11 1003.85 1004.29 1004.72 1005.68 1006.28 1007.81 1008.36 1008.41 1009.33 1010.51 1011.69 1012.20 1012.99 1014.05 1014.53 1014.77 1015.17 1015.56 1015.76 1015.94 1016.28 1016.56 1016.71 1016.81 1016.95 1017.07 1017.15 1017.20 1017.26 1017.34 1017.29 1017.26 1017.27 1017.25 1017.13 1017.06 1017.08 1017.16 1017.15 1017.14 1017.18
1008.73 1008.65 1009.20 1009.17 1007.74 1006.08 1004.44 1003.35 1003.47 1004.11 1004.99 1006.23 1006.84 1008.54 1008.96 1008.99 1009.65 1010.55 1011.30 1012.11 1013.12 1014.15 1014.68 1014.94 1015.20 1015.54 1015.86 1016.12 1016.46 1016.71 1016.95 1017.13 1017.21 1017.32 1017.33 1017.37 1017.43 1017.51 1017.48 1017.48 1017.49 1017.47 1017.43 1017.31 1017.22 1017.19 1017.27 1017.24 1017.28
1008.82 1008.43 1009.27 1008.88 1008.25 1006.18 1004.32 1002.98 1003.22 1003.92 1004.95 1006.27 1007.36 1008.47 1009.36 1009.39 1009.77 1010.44 1011.05 1012.17 1012.86 1013.93 1014.71 1015.01 1015.34 1015.72 1016.10 1016.31 1016.59 1016.86 1017.09 1017.31 1017.47 1017.52 1017.53 1017.52 1017.60 1017.60 1017.53 1017.58 1017.62 1017.64 1017.64 1017.58 1017.56 1017.43 1017.32 1017.21 1017.22
1008.51 1008.56 1009.05 1008.59 1008.13 1005.97 1004.63 1002.80 1003.25 1003.82 1004.77 1005.86 1006.93 1008.58 1009.50 1009.64 1009.73 1010.15 1010.96 1012.08 1012.90 1013.57 1014.55 1015.16 1015.48 1015.83 1016.17 1016.41 1016.69 1016.96 1017.17 1017.32 1017.45 1017.50 1017.62 1017.75 1017.73 1017.77 1017.64 1017.64 1017.61 1017.63 1017.64 1017.62 1017.55 1017.46 1017.39 1017.35 1017.38
1007.24 1007.97 1008.21 1007.88 1006.89 1006.24 1003.13 1002.81 1003.15 1003.50 1004.26 1005.56 1006.44 1008.07 1009.19 1009.36 1009.46 1009.83 1010.81 1011.90 1012.72 1013.57 1014.33 1015.22 1015.56 1015.89 1016.26 1016.51 1016.68 1016.85 1017.08 1017.23 1017.40 1017.56 1017.74 1017.66 1017.81 1017.79 1017.75 1017.59 1017.46 1017.48 1017.52 1017.51 1017.48 1017.43 1017.37 1017.22 1017.29
1006.51 1007.27 1006.49 1005.53 1005.46 1005.38 1002.82 1002.90 1003.26 1003.47 1004.16 1005.14 1005.52 1006.73 1007.93 1008.81 1009.34 1009.78 1010.60 1011.80 1012.59 1013.25 1013.91 1014.75 1015.37 1015.81 1016.17 1016.55 1016.61 1016.72 1016.93 1017.16 1017.33 1017.43 1017.49 1017.51 1017.58 1017.67 1017.64 1017.61 1017.63 1017.47 1017.50 1017.41 1017.54 1017.39 1017.49 1017.36 1017.24
1006.24 1006.10 1004.81 1003.71 1003.53 1003.31 1002.47 1002.33 1002.81 1003.53 1004.49 1005.73 1006.32 1007.19 1007.99 1008.54 1009.26 1009.79 1010.32 1011.46 1012.11 1012.86 1013.47 1013.97 1014.67 1015.21 1015.62 1015.80 1016.40 1016.73 1016.85 1017.02 1017.17 1017.18 1017.39 1017.44 1017.52 1017.57 1017.44 1017.56 1017.50 1017.60 1017.54 1017.41 1017.53 1017.65 1017.54 1017.45 1017.42
1005.39 1004.85 1003.59 1002.77 1001.49 1001.63 1001.75 1002.01 1002.23 1003.49 1004.72 1005.46 1006.48 1007.51 1008.16 1008.65 1009.19 1009.65 1010.07 1010.64 1011.29 1011.88 1012.62 1013.31 1013.78 1014.22 1014.86 1015.21 1015.95 1016.24 1016.42 1016.61 1016.72 1016.78 1017.07 1017.28 1017.20 1017.45 1017.67 1017.80 1017.61 1017.62 1017.58 1017.70 1017.52 1017.60 1017.54 1017.56 1017.33
1004.83 1003.57 1002.83 1002.33 1001.06 1001.01 1001.65 1001.61 1002.36 1003.01 1004.30 1005.21 1006.37 1007.22 1008.14 1008.73 1009.14 1009.45 1009.80 1010.25 1010.63 1011.45 1011.95 1012.67 1013.03 1013.61 1014.17 1014.97 1015.34 1015.37 1015.78 1016.08 1016.38 1016.39 1016.46 1016.68 1016.95 1017.04 1017.24 1017.38 1017.35 1017.55 1017.53 1017.72 1017.71 1017.69 1017.56 1017.35 1017.41
1004.43 1003.24 1002.09 1001.44 1000.72 1000.86 1001.47 1001.80 1002.82 1003.74 1004.34 1005.25 1006.37 1007.30 1008.15 1008.69 1009.05 1009.26 1009.44 1009.83 1010.21 1010.84 1011.62 1012.25 1012.57 1013.08 1013.80 1014.55 1014.74 1014.84 1015.21 1015.62 1015.67 1015.81 1015.99 1016.02 1016.41 1016.63 1016.93 1016.96 1016.93 1017.26 1017.31 1017.34 1017.43 1017.69 1017.63 1017.25 1016.99
1004.04 1003.39 1002.00 1001.34 1001.20 1000.72 1001.10 1002.32 1002.70 1004.22 1004.34 1005.36 1006.18 1007.21 1008.01 1008.52 1008.85 1009.16 1009.46 1009.98 1010.15 1010.50 1011.32 1011.79 1012.22 1012.59 1013.20 1014.10 1014.30 1014.59 1014.69 1014.97 1015.25 1015.37 1015.46 1015.72 1016.09 1016.38 1016.61 1016.73 1016.74 1016.82 1016.88 1016.89 1017.00 1017.39 1017.30 1017.14 1017.04
1003.85 1003.68 1002.35 1001.41 1001.06 1000.87 1000.99 1002.54 1003.96 1004.87 1004.85 1005.69 1006.40 1006.96 1007.84 1008.36 1008.51 1008.86 1009.15 1009.63 1009.91 1010.25 1010.82 1011.44 1011.87 1012.19 1012.57 1013.26 1013.53 1013.84 1014.11 1014.48 1014.64 1014.99 1015.24 1015.54 1015.82 1016.25 1016.39 1016.61 1016.61 1016.45 1016.45 1016.80 1016.91 1017.04 1017.15 1017.26 1017.23
1004.37 1003.66 1003.11 1001.68 1001.14 1000.88 1001.35 1003.32 1003.97 1004.64 1005.40 1006.32 1006.59 1007.00 1007.41 1007.97 1008.16 1008.39 1008.57 1008.90 1009.46 1010.05 1010.50 1010.95 1011.42 1011.92 1012.33 1012.93 1013.44 1013.68 1013.82 1014.20 1014.39 1014.62 1014.96 1015.11 1015.39 1015.64 1015.88 1016.24 1016.53 1016.46 1016.33 1016.36 1016.57 1016.82 1017.03 1017.32 1017.39
1004.71 1004.38 1003.49 1002.36 1001.22 1001.21 1001.61 1003.25 1003.86 1004.01 1004.41 1005.33 1006.54 1006.75 1007.20 1007.34 1007.79 1007.82 1007.98 1008.38 1008.88 1009.52 1010.20 1010.70 1011.11 1011.80 1012.29 1012.74 1013.23 1013.53 1013.74 1014.01 1014.07 1014.26 1014.65 1014.71 1014.75 1015.05 1015.42 1015.74 1015.67 1015.62 1016.20 1016.44 1016.62 1016.86 1016.82 1017.05 1017.13
1005.14 1004.40 1003.57 1002.66 1001.17 1001.35 1001.65 1002.37 1003.65 1003.81 1004.73 1006.20 1006.38 1006.26 1006.73 1006.96 1006.92 1007.15 1007.45 1007.83 1008.41 1009.10 1009.64 1010.13 1010.83 1011.40 1012.08 1012.70 1013.25 1013.65 1013.83 1013.96 1013.70 1013.89 1014.09 1014.09 1014.38 1014.63 1014.99 1015.27 1015.48 1015.22 1015.69 1016.06 1016.43 1016.54 1016.78 1016.81 1016.91
1004.45 1004.08 1003.43 1001.87 1000.86 1000.94 1001.19 1002.14 1003.39 1004.67 1004.96 1006.09 1006.60 1006.13 1005.69 1006.10 1006.07 1006.54 1006.91 1007.24 1007.90 1008.64 1009.39 1009.95 1010.53 1011.05 1011.82 1012.67 1013.30 1013.87 1013.79 1013.76 1013.66 1013.56 1013.48 1013.54 1013.73 1013.91 1014.40 1014.72 1015.16 1015.19 1015.53 1015.61 1015.81 1016.14 1016.42 1016.75 1016.64
1003.74 1003.52 1003.12 1002.00 1000.80 1000.74 1000.93 1001.86 1002.68 1004.11 1004.41 1004.40 1004.86 1004.54 1004.58 1005.10 1005.31 1005.48 1005.90 1006.28 1006.80 1007.76 1008.57 1009.27 1009.75 1010.53 1011.14 1011.77 1012.35 1012.91 1013.06 1013.14 1013.22 1013.13 1013.03 1013.15 1013.10 1013.21 1013.63 1014.24 1014.58 1014.95 1015.22 1015.41 1015.59 1015.78 1016.44 1016.85 1016.75
1002.84 1002.92 1002.65 1002.21 1001.24 1001.08 1001.34 1001.84 1002.25 1002.95 1003.02 1003.14 1003.13 1002.89 1003.29 1003.53 1003.89 1004.42 1004.86 1005.00 1005.69 1006.39 1007.05 1007.95 1008.66 1009.48 1010.18 1011.13 1011.81 1012.25 1012.62 1012.83 1012.92 1012.78 1012.58 1012.40 1012.41 1012.56 1012.80 1013.13 1014.28 1014.62 1014.98 1015.32 1015.65 1015.68 1016.10 1016.72 1017.06
1002.02 1001.83 1002.19 1002.28 1002.35 1002.57 1001.97 1002.52 1001.97 1001.76 1001.96 1001.87 1001.46 1002.02 1002.17 1002.28 1002.42 1002.87 1003.31 1003.97 1004.14 1004.36 1005.48 1006.32 1007.07 1007.98 1008.92 1009.88 1010.84 1011.43 1011.87 1012.17 1012.06 1011.85 1011.91 1012.14 1012.46 1012.87 1013.20 1013.43 1013.26 1013.94 1014.44 1014.83 1015.35 1015.50 1015.78 1016.20 1016.82
1001.85 1001.97 1002.56 1002.88 1003.16 1003.24 1002.79 1003.12 1002.05 1001.36 1001.14 1000.71 1000.42 1000.07 1000.82 1000.78 1000.98 1001.24 1001.80 1001.99 1002.10 1003.31 1004.08 1004.85 1005.87 1006.74 1007.53 1008.48 1009.54 1010.61 1011.18 1011.22 1011.22 1011.48 1011.77 1011.81 1012.50 1012.94 1013.78 1013.72 1013.55 1014.30 1014.07 1014.21 1014.83 1015.32 1015.74 1015.94 1016.43
1001.70 1002.26 1002.93 1003.43 1004.20 1004.49 1003.72 1003.21 1002.64 1001.70 1000.57 1000.03 999.56 999.47 999.59 999.82 999.64 999.99 1000.16 1000.56 1001.43 1001.99 1003.22 1004.32 1005.07 1006.03 1006.61 1007.37 1008.61 1009.52 1010.32 1010.91 1011.39 1011.66 1012.04 1012.83 1013.58 1013.72 1014.39 1013.90 1013.46 1013.83 1014.52 1014.56 1014.41 1014.63 1015.22 1015.58 1015.96
1002.04 1003.23 1004.61 1005.38 1005.52 1005.48 1003.83 1003.61 1001.94 1000.02 999.06 999.01 999.03 998.73 998.80 998.99 999.23 999.39 1000.17 1000.47 1000.96 1001.82 1002.50 1003.30 1004.55 1005.25 1006.16 1006.98 1007.68 1008.43 1009.26 1010.33 1011.34 1011.87 1012.45 1012.91 1013.16 1013.89 1013.44 1013.53 1013.35 1013.62 1014.22 1014.39 1013.34 1014.76 1014.86 1015.34 1015.81
1002.49 1003.60 1005.08 1005.77 1006.11 1005.72 1004.29 1002.85 1000.91 999.19 998.15 998.49 998.43 998.63 998.92 999.18 999.33 999.27 999.28 999.12 999.41 1000.63 1001.42 1002.39 1003.52 1004.40 1006.10 1007.73 1008.68 1009.40 1009.11 1009.70 1010.61 1011.40 1012.43 1013.06 1013.47 1013.21 1012.60 1013.19 1013.80 1014.20 1014.38 1014.53 1014.49 1015.00 1014.84 1015.29 1015.68
1002.40 1003.18 1003.63 1005.39 1005.68 1005.64 1004.33 1002.36 1000.45 999.55 998.87 999.01 999.19 999.31 999.79 1000.18 999.94 1000.16 1000.67 1000.47 1000.40 1000.18 1000.55 1001.25 1003.27 1004.65 1005.21 1005.43 1005.66 1005.64 1009.03 1010.35 1011.42 1012.42 1012.25 1012.97 1013.82 1013.04 1012.28 1012.84 1013.12 1013.23 1013.84 1014.77 1014.83 1015.11 1015.58 1015.51 1015.73
1001.91 1002.75 1004.01 1005.30 1006.05 1005.82 1004.77 1003.72 1002.84 1001.70 1001.29 1001.02 1001.29 1001.05 1000.82 1000.94 1001.34 1002.08 1002.89 1003.39 1003.24 1002.31 1000.79 1002.05 1002.74 1003.56 1004.90 1005.93 1006.84 1007.75 1009.17 1009.88 1010.58 1011.99 1012.27 1013.45 1013.62 1012.46 1012.27 1012.78 1013.04 1013.21 1013.51 1014.04 1014.72 1015.21 1015.30 1015.51 1015.97
1002.19 1002.68 1003.83 1004.94 1005.87 1006.20 1005.68 1005.01 1003.44 1003.05 1003.10 1003.41 1003.70 1003.77 1003.50 1003.36 1004.23 1006.18 1006.89 1007.88 1003.94 1003.56 1003.87 1004.68 1005.33 1006.24 1006.99 1007.27 1007.49 1008.39 1009.68 1010.20 1011.43 1012.64 1012.55 1012.76 1012.88 1012.36 1012.62 1012.58 1012.93 1013.65 1014.08 1014.51 1014.83 1015.21 1015.63 1016.11 1016.15
1002.03 1002.72 1003.51 1005.15 1006.08 1006.24 1006.17 1006.86 1004.51 1004.28 1004.34 1004.58 1005.16 1005.61 1005.76 1006.40 1007.15 1007.34 1008.27 1006.36 1006.13 1006.87 1006.49 1007.19 1007.76 1007.95 1008.55 1009.56 1010.19 1010.34 1010.95 1011.07 1012.04 1012.77 1012.66 1012.65 1012.72 1012.68 1013.31 1013.72 1014.04 1013.87 1014.55 1014.97 1015.19 1015.57 1015.86 1016.01 1016.20
Wind_Speed
7 7 3 2 2 2 5 5 14 13 8 8 16 13 11 1 5 7 11 19 20 17 13 13 15 15 14 13 12 12 12 11 10 9 11 13 12 13 13 12 12 12 10 9 7 8 9 8 8
2 4 2 3 4 2 2 9 12 8 7 10 20 19 17 12 17 20 13 18 18 16 11 10 16 16 15 13 12 12 11 11 11 11 12 12 12 12 13 11 10 10 10 9 7 7 7 7 7
2 4 1 1 2 3 2 9 9 7 8 12 10 12 6 12 9 7 21 20 18 14 11 12 17 15 15 14 12 11 10 11 12 12 11 11 10 11 10 10 9 9 9 8 7 6 5 5 6
1 3 5 2 9 15 6 10 13 10 12 19 15 13 8 10 7 14 21 20 18 14 9 14 16 14 14 14 12 11 10 11 11 11 10 10 9 9 9 10 11 10 10 9 7 4 3 3 3
2 3 3 3 10 8 9 11 13 14 14 19 19 11 8 14 22 22 20 19 18 14 9 10 15 14 13 13 11 10 10 9 10 9 9 8 8 8 8 10 11 11 10 9 7 5 1 2 4
2 2 4 6 9 16 9 10 15 18 21 19 18 12 6 10 16 17 18 18 18 16 10 8 14 13 12 12 11 9 8 8 8 8 7 7 6 6 7 8 9 8 9 8 8 6 3 1 2
4 1 6 7 15 14 17 12 13 14 18 14 19 10 7 8 9 14 15 19 17 16 12 7 7 10 13 12 10 9 8 8 7 7 6 4 4 4 6 4 6 6 5 6 5 3 2 2 6
5 1 4 8 10 14 9 12 16 11 10 23 21 8 11 9 11 11 16 18 18 16 13 9 7 7 7 6 12 10 9 8 7 6 6 5 4 4 4 5 5 5 5 3 3 3 1 3 4
6 2 13 20 6 29 10 16 10 9 10 8 3 12 21 14 13 9 10 17 16 14 15 12 10 9 8 7 8 10 11 10 9 8 9 7 4 5 7 7 5 5 4 3 3 3 4 5 7
6 4 14 11 17 8 9 15 13 12 17 14 15 20 17 16 14 8 9 16 17 17 16 16 14 13 11 10 8 6 6 5 5 6 6 5 5 5 7 6 9 5 4 5 4 4 7 7 4
9 12 17 17 6 8 9 8 10 17 12 18 21 20 17 10 11 9 9 11 16 19 14 17 16 14 14 10 8 5 5 5 5 8 7 7 6 4 3 3 2 3 6 3 4 4 4 5 4
7 17 15 8 6 5 8 9 12 14 12 21 20 19 16 11 11 9 10 9 10 15 16 17 16 11 11 8 8 9 7 6 5 6 8 6 5 5 5 3 4 4 3 5 4 3 4 7 5
8 13 11 9 7 6 5 6 10 16 17 20 19 17 13 9 9 8 9 8 9 9 12 13 10 11 12 9 8 7 8 6 7 5 7 4 5 4 4 4 4 3 4 5 4 4 4 4 1
11 14 13 9 7 5 1 9 9 15 17 17 18 15 12 9 10 7 8 8 8 10 9 10 9 9 13 7 7 5 6 9 6 6 6 6 4 3 4 4 2 3 2 4 5 4 2 3 1
10 10 14 9 6 4 5 7 9 9 16 14 13 14 12 10 11 10 10 9 10 11 12 12 9 9 9 7 4 3 5 5 4 5 7 7 6 5 4 2 1 2 2 3 3 3 1 2 3
9 6 4 9 9 7 9 4 19 14 11 10 12 13 14 11 12 10 10 10 10 10 14 13 12 9 9 7 4 2 2 4 4 4 5 7 7 7 5 3 3 3 4 3 5 3 2 1 3
5 6 8 11 12 9 7 7 12 11 17 12 10 13 14 12 10 9 10 11 11 13 12 11 13 12 9 7 5 5 4 3 5 5 5 7 7 7 5 4 4 5 3 3 4 2 2 1 2
8 5 8 9 17 12 8 7 11 10 11 4 6 15 14 15 14 10 11 11 11 13 14 13 9 13 10 6 4 3 3 3 4 4 5 9 7 7 6 5 3 4 3 2 2 3 1 2 3
9 7 10 16 17 4 10 7 18 11 13 14 21 17 16 18 14 11 12 13 13 13 14 13 11 12 10 5 6 3 5 3 3 4 6 9 9 8 7 6 6 5 5 4 5 3 3 1 1
14 10 10 12 10 2 6 7 20 21 23 30 31 20 19 16 17 16 17 16 18 16 17 16 14 13 12 9 8 4 4 4 4 5 6 7 10 9 8 8 6 6 4 4 5 5 2 1 1
12 7 6 6 9 7 3 2 4 11 10 18 20 20 18 21 21 20 20 20 18 20 21 20 18 14 15 10 6 3 3 2 4 5 5 7 10 10 8 9 6 5 5 4 5 4 5 3 2
4 5 8 8 6 4 3 6 5 5 11 18 3 14 21 21 21 22 23 20 22 24 20 22 21 18 16 15 12 13 10 10 8 10 9 10 7 6 4 3 9 7 4 6 5 4 3 4 3
7 7 5 6 6 3 8 3 8 6 8 8 18 18 14 19 21 24 26 26 27 22 23 21 21 20 19 19 16 11 9 5 4 4 8 7 4 4 5 5 2 4 4 5 6 5 5 3 3
6 4 9 5 4 6 9 6 7 7 9 6 7 11 18 13 12 24 27 27 22 21 21 20 22 21 20 20 15 15 14 8 6 4 2 4 5 3 7 7 4 4 4 4 5 6 5 4 3
4 6 4 5 4 8 10 3 14 11 13 11 11 12 10 5 7 5 18 23 22 22 22 21 22 22 20 19 17 14 11 10 6 3 4 4 7 7 6 5 2 1 2 4 4 3 4 4 2
8 9 7 5 3 5 7 7 14 18 18 10 8 7 0 7 7 7 3 11 24 23 23 23 23 22 17 12 9 8 12 5 6 6 4 2 1 3 4 4 5 4 4 4 1 1 3 5 3
8 4 13 4 5 2 5 10 4 11 9 8 6 5 7 2 6 13 12 12 12 16 22 22 17 17 21 20 18 12 7 10 10 5 4 3 5 2 1 6 6 4 3 11 4 2 3 4 3
6 4 4 3 4 3 6 4 1 14 11 7 12 11 10 9 13 15 17 16 15 15 13 12 21 20 16 12 6 10 13 11 9 5 6 2 7 4 4 1 4 5 4 5 5 4 4 4 3
4 5 2 4 4 3 2 2 5 9 9 18 20 16 18 15 22 27 25 24 17 22 23 16 13 14 12 9 9 13 9 10 9 3 2 3 6 3 4 6 8 6 4 6 5 5 6 6 5
7 6 4 6 6 1 4 4 12 15 14 16 15 15 17 16 17 19 19 28 27 18 17 18 15 14 11 10 8 10 9 6 4 4 4 3 7 10 9 10 7 5 5 5 6 7 6 7 7
Wind_Direction
167 178 198 270 16 1 298 84 72 51 64 47 74 70 94 54 131 144 118 113 124 125 129 128 127 124 117 118 116 109 101 96 89 84 77 76 71 70 63 61 59 61 66 84 86 82 87 80 59
240 244 250 288 92 258 225 92 81 79 111 101 88 80 70 73 86 118 110 123 121 126 125 128 129 125 128 123 114 108 107 103 87 82 82 76 72 70 65 59 61 67 68 68 88 90 83 79 60
333 254 59 133 248 243 219 120 131 115 62 109 75 79 72 115 98 89 124 130 124 121 124 135 129 131 127 120 116 113 109 102 96 96 91 83 74 69 62 58 55 66 71 79 81 91 94 81 60
278 344 328 67 270 268 263 115 118 109 78 100 107 60 85 110 88 130 129 123 113 114 122 132 132 130 128 123 123 116 108 104 100 98 97 95 86 69 61 60 58 61 65 69 86 82 81 84 52
263 277 51 318 276 273 248 122 114 100 97 99 101 117 84 99 117 124 127 125 121 121 133 131 134 133 131 124 120 110 107 106 107 109 110 106 96 83 74 69 66 61 59 63 68 70 36 22 14
313 141 34 346 304 287 312 124 123 114 108 112 108 119 100 122 117 133 138 126 131 132 137 139 137 135 133 128 122 119 119 120 116 123 127 125 115 106 96 86 77 68 64 66 62 60 90 49 324
220 301 188 211 306 295 266 98 92 115 128 134 129 118 146 131 146 141 135 133 133 133 133 127 133 143 143 134 134 135 138 136 140 149 146 151 150 130 125 119 104 94 79 83 92 89 108 299 324
203 232 215 194 165 273 127 92 106 105 121 134 134 148 163 178 159 155 134 137 137 137 137 149 145 141 142 147 151 154 153 155 162 168 164 182 179 197 193 166 146 126 116 126 142 130 236 291 307
268 274 264 267 142 260 120 110 123 136 89 109 180 142 156 159 156 161 134 141 142 145 148 154 157 162 160 155 169 166 166 173 178 187 191 200 193 204 218 210 209 165 161 191 205 238 272 285 286
177 225 258 268 183 225 136 129 141 123 105 83 97 126 146 160 160 166 151 151 153 154 162 158 163 174 169 163 158 170 181 185 191 198 195 207 215 194 219 195 189 223 224 228 236 259 278 287 297
243 238 258 285 76 128 134 130 151 126 129 135 137 142 150 168 166 168 162 156 161 167 163 166 172 174 172 162 168 176 183 193 205 205 187 200 213 201 208 207 190 217 239 250 240 218 242 253 253
250 259 256 265 45 335 152 143 88 122 148 138 140 144 159 178 172 175 170 166 156 160 167 168 179 161 163 157 176 180 183 195 196 212 199 194 197 181 208 195 193 210 232 226 218 242 213 248 271
269 268 278 281 135 271 119 73 118 115 127 132 138 144 163 167 181 179 170 161 156 141 141 166 171 138 152 165 189 182 190 194 198 197 195 170 172 173 162 206 221 170 246 213 228 196 219 216 340
288 300 270 291 260 232 312 161 107 134 127 130 141 149 164 174 177 179 164 164 154 144 135 153 155 149 151 180 177 200 177 192 182 181 191 162 148 161 155 192 206 218 211 159 121 166 213 256 335
281 308 305 270 267 222 192 94 116 124 123 134 145 152 165 183 180 192 181 176 166 160 149 157 156 159 152 161 174 156 152 163 172 161 181 151 154 174 199 280 209 270 162 164 116 147 221 303 306
306 311 308 284 288 258 119 143 120 128 131 149 158 166 170 193 189 192 183 174 159 157 161 163 166 169 166 162 170 185 196 167 191 155 168 169 168 171 197 204 216 253 216 184 159 175 230 257 233
300 254 286 281 263 234 139 139 182 159 147 147 187 176 179 187 201 190 183 176 171 162 172 169 162 169 169 172 164 195 216 219 189 187 177 180 183 191 188 210 209 220 191 191 173 215 182 179 313
248 246 261 254 272 260 224 202 172 156 150 17 253 183 182 190 203 191 180 171 173 163 174 173 159 170 168 162 156 194 221 248 205 188 184 184 185 196 197 214 226 196 187 173 184 166 181 171 210
249 265 240 256 263 222 205 179 180 140 121 110 295 201 185 190 197 181 186 173 170 162 171 177 166 173 165 163 174 179 207 212 228 204 210 194 192 194 185 203 185 198 193 187 165 160 181 267 223
244 249 270 279 281 358 194 230 180 170 173 178 206 195 188 183 191 188 189 176 177 170 177 181 185 164 174 175 182 182 180 204 196 211 226 194 200 194 178 192 202 193 209 189 186 160 159 236 125
238 230 259 263 300 328 58 333 138 187 180 197 206 195 183 193 188 195 192 191 176 181 178 183 184 170 172 173 168 178 187 208 205 218 225 221 196 196 186 172 177 208 168 193 195 161 157 194 23
281 297 286 284 319 266 116 252 248 253 214 194 138 195 191 201 194 192 198 195 190 191 179 182 182 176 175 173 180 191 197 209 214 209 212 218 194 168 208 196 176 187 181 171 192 179 176 146 201
247 273 286 296 270 298 309 66 266 244 265 225 198 199 197 198 202 193 200 201 198 185 188 182 183 180 179 179 184 186 205 209 203 203 200 193 99 69 299 281 269 220 192 169 171 175 192 174 168
276 331 350 341 37 8 268 167 272 253 227 241 228 185 203 223 203 201 201 205 202 193 185 186 180 185 186 183 174 179 199 204 215 248 162 86 66 319 260 254 207 191 274 249 204 189 201 172 157
318 65 340 347 348 225 256 321 241 249 244 213 214 199 200 236 264 266 201 204 205 197 187 186 185 187 184 185 188 183 188 188 158 92 92 122 159 221 227 230 221 186 291 317 264 246 185 142 151
229 152 166 217 214 269 287 240 253 250 244 125 102 122 287 277 253 270 345 205 195 198 191 187 185 187 175 149 149 225 213 158 131 130 119 102 295 187 168 323 21 6 354 298 284 177 156 131 130
278 151 215 210 259 12 256 305 347 356 73 84 128 171 231 331 60 56 51 43 29 201 196 190 171 169 171 176 181 196 127 100 97 79 82 33 329 302 31 118 130 68 292 276 148 135 159 149 156
181 216 13 337 209 274 300 348 320 11 8 26 43 12 70 49 57 48 43 42 39 12 233 150 167 171 164 158 143 113 128 130 121 91 85 288 275 207 206 237 75 69 136 135 152 157 148 126 103
299 304 292 128 129 133 297 288 313 50 45 38 39 12 12 28 35 40 30 6 56 46 40 47 67 76 76 89 106 104 100 87 74 53 326 293 278 81 114 94 109 116 150 128 120 96 95 96 78
194 206 164 114 302 77 170 10 344 31 43 56 44 51 67 70 56 66 60 33 15 35 56 51 52 58 48 52 59 62 79 71 36 324 311 303 61 55 40 56 32 103 106 105 98 91 99 94 72